DW3845 Weather Reports


Display with metric or nautical units.
time (UTC)temp
F
wind
direction
speed
MPH
gust
MPH
rain 1hr
in
rain 24hr
in
rain mn
in
humidity
%
barometer
mb
20260509093034 42 47 0.0 0.0 0.00 0.00 0.00 83 1001.5
20260509091535 42 42 0.0 1.0 0.00 0.00 0.00 81 1001.4
20260509090037 42 32 0.0 0.0 0.00 0.00 0.00 81 1001.2
20260509084526 43 42 0.0 2.0 0.00 0.00 0.00 80 1001.0
20260509083024 44 46 0.0 0.0 0.00 0.00 0.00 80 1000.9
20260509081521 45 44 0.0 0.0 0.00 0.00 0.00 79 1000.8
20260509080017 45 40 0.0 0.0 0.00 0.00 0.00 79 1000.7
20260509074513 46 37 2.0 2.0 0.00 0.00 0.00 78 1000.7
20260509073025 46 27 2.0 3.0 0.00 0.00 0.00 79 1000.5
20260509071508 47 42 2.0 4.0 0.00 0.00 0.00 77 1000.4
20260509070004 47 44 2.0 3.0 0.00 0.00 0.00 75 1000.2
20260509064503 46 50 3.0 4.0 0.00 0.00 0.00 77 1000.1
20260509063003 46 44 3.0 3.0 0.00 0.00 0.00 78 999.8
20260509061601 46 38 2.0 3.0 0.00 0.00 0.00 78 999.8
20260509060117 47 42 2.0 3.0 0.00 0.00 0.00 77 999.7
20260509054558 47 32 2.0 3.0 0.00 0.00 0.00 77 999.7
20260509053116 47 44 0.0 2.0 0.00 0.00 0.00 77 999.7
20260509051609 47 46 0.0 0.0 0.00 0.00 0.00 77 999.6
20260509044559 49 41 0.0 0.0 0.00 0.00 0.00 74 999.4
20260509043059 50 26 0.0 0.0 0.00 0.00 0.00 72 999.5
20260509041556 52 51 0.0 0.0 0.00 0.00 0.00 67 999.5
20260509040107 53 46 0.0 0.0 0.00 0.00 0.00 68 999.2
20260509034555 53 41 0.0 0.0 0.00 0.00 0.00 66 999.2
20260509033116 54 40 0.0 0.0 0.00 0.00 0.00 68 999.1
20260509031553 55 44 0.0 0.0 0.00 0.00 0.00 65 998.9
20260509030054 57 34 0.0 0.0 0.00 0.00 0.00 57 998.8
20260509024603 59 266 0.0 0.0 0.00 0.00 0.00 48 998.7
20260509023052 61 266 0.0 1.0 0.00 0.00 0.00 46 998.6
20260509021552 62 205 1.0 6.0 0.00 0.00 0.00 42 998.5
20260509020105 62 274 0.0 1.0 0.00 0.00 0.00 46 998.4
20260509014550 63 257 0.0 0.0 0.00 0.00 0.00 44 998.4
20260509013049 63 250 0.0 2.0 0.00 0.00 0.00 42 998.4
20260509011555 64 229 2.0 6.0 0.00 0.00 0.00 39 998.4
20260509010049 65 243 2.0 6.0 0.00 0.00 0.00 41 998.4
20260509004550 65 118 2.0 8.0 0.00 0.00 0.00 44 998.4
20260509003055 65 225 2.0 5.0 0.00 0.00 0.00 44 998.4
20260509001547 66 134 4.0 6.0 0.00 0.00 0.00 44 998.5
20260509000046 66 251 3.0 8.0 0.00 0.00 0.00 44 998.5
20260508234546 65 236 2.0 6.0 0.00 0.00 0.00 45 998.6
20260508233047 65 179 2.0 8.0 0.00 0.00 0.00 44 998.6
20260508231548 65 253 1.0 5.0 0.00 0.00 0.00 43 998.6
20260508230045 65 256 0.0 5.0 0.00 0.00 0.00 45 998.6
20260508224552 65 186 2.0 6.0 0.00 0.00 0.00 43 998.9
20260508223043 65 288 3.0 8.0 0.00 0.00 0.00 41 998.8
20260508221642 66 203 2.0 8.0 0.00 0.00 0.00 39 998.9
20260508220047 66 203 3.0 9.0 0.00 0.00 0.00 39 999.0
20260508214545 65 260 3.0 9.0 0.00 0.00 0.00 39 999.1
20260508213040 65 256 3.0 12.0 0.00 0.00 0.00 38 999.2
20260508211538 65 233 4.0 8.0 0.00 0.00 0.00 38 999.2
20260508210038 64 237 4.0 10.0 0.00 0.00 0.00 40 999.2
20260508204538 64 236 3.0 10.0 0.00 0.00 0.00 40 999.2
20260508203037 65 207 3.0 7.0 0.00 0.00 0.00 40 999.1
20260508201536 66 266 3.0 7.0 0.00 0.00 0.00 39 999.1
20260508200035 66 248 2.0 7.0 0.00 0.00 0.00 38 999.0
20260508194534 66 271 0.0 7.0 0.00 0.00 0.00 41 999.0
20260508193033 66 283 2.0 9.0 0.00 0.00 0.00 39 999.1
20260508191535 66 253 1.0 5.0 0.00 0.00 0.00 40 999.2
20260508190031 66 174 0.0 4.0 0.00 0.00 0.00 40 999.1
20260508184529 66 217 2.0 6.0 0.00 0.00 0.00 40 999.2
20260508183027 65 239 2.0 5.0 0.00 0.00 0.00 40 999.4
20260508181535 64 152 0.0 5.0 0.00 0.00 0.00 39 999.2
20260508180025 64 208 0.0 1.0 0.00 0.00 0.00 38 999.3
20260508174522 64 196 0.0 2.0 0.00 0.00 0.00 43 999.4
20260508173019 63 82 0.0 0.0 0.00 0.00 0.00 47 999.5
20260508171518 63 155 0.0 2.0 0.00 0.00 0.00 46 999.5
20260508170019 62 111 0.0 4.0 0.00 0.00 0.00 50 999.5
20260508164513 62 249 1.0 4.0 0.00 0.00 0.00 55 999.6
20260508163015 61 255 0.0 0.0 0.00 0.00 0.00 57 999.7
20260508161507 60 198 0.0 0.0 0.00 0.00 0.00 61 999.7
20260508160006 60 158 0.0 0.0 0.00 0.00 0.00 64 999.9
20260508154502 58 242 0.0 1.0 0.00 0.00 0.00 65 999.8
20260508153107 57 174 0.0 1.0 0.00 0.00 0.00 71 999.8
20260508151552 54 160 0.0 0.0 0.00 0.00 0.00 76 999.9
20260508150049 53 50 0.0 0.0 0.00 0.00 0.00 79 999.8
20260508144546 51 51 0.0 0.0 0.00 0.00 0.00 83 999.7
20260508143101 50 46 0.0 0.0 0.00 0.00 0.00 84 999.8
20260508141540 48 47 0.0 0.0 0.00 0.00 0.00 83 999.8
20260508140039 47 47 0.0 1.0 0.00 0.00 0.00 81 999.8
20260508134540 46 48 1.0 3.0 0.00 0.00 0.00 80 999.7
20260508133037 44 41 2.0 3.0 0.00 0.00 0.00 75 999.6
20260508131535 43 46 3.0 3.0 0.00 0.00 0.00 75 999.5
20260508130033 43 34 1.0 4.0 0.00 0.00 0.00 77 999.3
20260508124533 43 44 3.0 3.0 0.00 0.00 0.00 78 999.2
20260508123031 43 26 2.0 3.0 0.00 0.00 0.00 78 999.2
20260508121529 43 39 0.0 3.0 0.00 0.00 0.00 78 999.2
20260508120028 43 42 1.0 3.0 0.00 0.00 0.00 79 999.2
20260508114525 43 41 1.0 2.0 0.00 0.00 0.00 80 999.3
20260508113023 44 40 0.0 2.0 0.00 0.00 0.00 81 999.2
20260508111521 44 46 0.0 2.0 0.00 0.00 0.00 82 999.2
20260508110029 44 46 2.0 3.0 0.00 0.00 0.00 82 999.1
20260508104517 44 47 0.0 1.0 0.00 0.00 0.00 81 998.9
20260508103035 44 38 0.0 2.0 0.00 0.00 0.00 80 998.8
20260508101516 45 44 0.0 2.0 0.00 0.00 0.00 82 998.7
20260508100011 45 40 0.0 2.0 0.00 0.00 0.00 81 998.6
20260508094508 45 48 0.0 2.0 0.00 0.00 0.00 82 998.7